This demonstration page uses our WeatherBlox Daily Observations layout. Learn more.

Left ArrowRight Arrow

Hourly Observations for April 13, 2022

Temp ( °F °C ) Dew Point ( °F °C ) Humidity (%) Winds ( mph kmh ) Pressure ( in mb ) Visibility ( mi km ) Precip ( " mm )
12:56 am 00:56 Cloudy 49 9.7 38 3.2 64 64 WNW 21 33 29.58 1002 10 16 0.00 0.00
1:56 am 01:56 Mostly Cloudy 46 7.7 33 0.7 62 62 WNW 21 33 29.63 1004 10 16 0.00 0.00
2:56 am 02:56 Cloudy 44 6.5 26 -3.5 49 49 NW 18 30 29.65 1004 10 16 0.00 0.00
3:56 am 03:56 Cloudy 41 4.9 25 -4.1 53 53 NNW 18 30 29.70 1006 10 16 0.00 0.00
4:56 am 04:56 Mostly Cloudy 38 3.5 26 -3.3 61 61 NW 15 24 29.71 1006 10 16 0.00 0.00
5:56 am 05:56 Mostly Cloudy 37 2.9 23 -5 56 56 NW 22 35 29.70 1006 10 16 0.00 0.00
6:56 am 06:56 Cloudy 35 1.5 17 -8.1 49 49 NW 23 37 29.73 1007 10 16 0.00 0.00
8:56 am 08:56 Mostly Cloudy 32 0.2 17 -8.3 53 53 WNW 21 33 29.85 1011 10 16 0.00 0.00
9:56 am 09:56 Cloudy 32 0 17 -8.2 54 54 WNW 20 31 29.84 1011 10 16 0.00 0.00
10:56 am 10:56 Mostly Cloudy 34 1.1 17 -8.2 50 50 WNW 24 39 29.83 1010 10 16 0.00 0.00
11:56 am 11:56 Mostly Cloudy 35 1.7 17 -8.4 47 47 WNW 14 22 29.86 1011 10 16 0.00 0.00
12:56 pm 12:56 Mostly Cloudy 38 3.5 14 -9.8 37 37 NNW 15 24 29.85 1011 10 16 0.00 0.00
1:56 pm 13:56 Mostly Sunny 43 6.1 16 -9 33 33 NW 20 31 29.84 1010 10 16 0.00 0.00
2:56 pm 14:56 Mostly Sunny 47 8.5 16 -9 28 28 NW 14 22 29.83 1010 10 16 0.00 0.00
3:28 pm 15:28 Mostly Sunny 48 9 14 -10 25 25 NW 15 24 29.84 1010 10 16 0.00 0.00
3:56 pm 15:56 Partly Cloudy 49 9.2 14 -9.8 25 25 WNW 12 19 29.83 1010 10 16 0.00 0.00
4:56 pm 16:56 Partly Cloudy 50 10 14 -10.2 23 23 W 14 22 29.84 1010 10 16 0.00 0.00
5:56 pm 17:56 Partly Cloudy 49 9.6 8 -13.6 18 18 WNW 18 30 29.85 1011 10 16 0.00 0.00
6:56 pm 18:56 Sunny 49 9.4 8 -13.1 19 19 W 12 19 29.85 1011 9 14 0.00 0.00
7:56 pm 19:56 Sunny 47 8.2 8 -13.5 20 20 WNW 12 19 29.85 1011 9 14 0.00 0.00
8:56 pm 20:56 Clear 45 7.3 8 -13.6 21 21 W 12 19 29.88 1012 8 13 0.00 0.00
9:56 pm 21:56 Clear 43 6 7 -14.1 22 22 WNW 12 19 29.91 1013 10 16 0.00 0.00
10:56 pm 22:56 Clear 41 5.1 7 -13.8 24 24 W 14 22 29.92 1013 10 16 0.00 0.00
11:56 pm 23:56 Clear 40 4.2 7 -14.1 25 25 WNW 15 24 29.93 1013 10 16 0.00 0.00

Powered by AerisWeather